Temperature
14 14 14 15 15 15 15 16 17 18 18 16 15 15 15 15 15 15 16 16 17 17 17 17 17 17 17 17 16 16 16 16 16 16 16 16 16 16
13 13 14 14 14 14 15 15 15 16 17 17 15 14 14 14 15 15 15 16 16 16 16 16 16 16 16 16 16 16 16 16 16 16 16 16 16 16
12 12 13 13 14 14 14 14 15 15 16 16 15 14 14 14 14 14 15 15 15 16 16 16 16 16 16 16 16 16 16 16 16 16 16 16 16 16
11 11 12 12 13 13 14 14 14 14 15 15 14 14 13 13 13 14 14 14 15 15 15 15 15 15 15 15 15 15 15 15 15 15 15 15 15 15
10 10 11 11 12 13 13 13 14 14 14 14 14 14 13 13 13 13 13 13 14 14 14 14 14 14 15 15 15 15 14 14 14 14 14 14 14 15
10 10 10 11 11 12 12 13 13 13 13 14 14 14 13 13 12 12 12 12 12 13 13 13 13 14 14 14 14 14 14 14 14 14 14 14 14 14
9 9 10 10 10 11 11 12 12 13 13 13 14 13 13 12 12 12 12 12 12 12 12 12 12 13 13 13 13 13 13 13 13 13 13 13 13 13
9 9 9 9 10 10 10 11 12 12 13 13 13 13 13 13 12 12 12 12 11 11 11 11 11 11 12 12 12 12 12 12 12 13 13 13 13 13
9 9 9 10 9 9 10 10 11 11 12 12 13 13 13 13 12 12 12 12 12 12 11 10 10 10 11 11 12 12 12 12 12 12 12 12 12 12
9 9 9 9 9 9 9 10 10 11 11 12 12 13 13 13 13 13 12 12 11 11 10 10 9 10 10 10 10 11 11 11 11 11 11 11 11 11
9 9 9 9 9 9 9 9 10 10 11 11 11 12 12 12 12 12 11 11 11 10 10 10 9 9 9 9 9 9 10 10 10 10 10 10 10 10
8 9 9 9 9 9 9 9 9 10 11 11 11 11 12 12 12 12 12 11 11 10 9 10 9 9 8 8 8 8 8 8 9 9 9 9 9 8
9 9 9 9 9 9 9 9 9 10 10 11 11 11 11 11 12 12 12 12 12 12 11 10 9 10 9 8 7 7 7 8 8 8 8 8 8 7
8 9 9 9 9 9 9 9 9 9 10 10 10 11 11 11 11 11 11 11 11 12 12 11 10 10 10 9 8 7 7 7 7 7 7 7 8 8
8 8 8 8 8 8 9 9 9 9 9 10 10 11 11 11 11 11 11 11 11 11 11 11 11 10 10 10 9 8 8 7 7 7 7 7 7 7
7 7 8 8 8 8 8 9 9 9 9 10 10 10 11 11 11 11 10 10 10 9 10 10 10 10 10 10 10 9 8 8 8 7 7 7 7 7
7 7 7 8 8 8 8 9 9 9 9 10 10 10 10 11 10 10 10 10 10 9 9 9 9 9 10 10 10 9 9 9 8 8 7 8 8 7
7 7 8 8 8 9 9 9 9 9 9 10 10 10 10 10 10 10 10 9 9 9 9 9 9 9 9 9 10 9 9 9 8 8 8 8 8 8
7 7 8 8 9 9 9 9 9 9 9 9 10 10 10 10 10 9 9 9 9 9 9 9 9 9 10 10 9 9 9 9 9 8 8 9 9 9
7 8 8 8 9 9 9 9 9 9 9 9 9 9 9 9 9 9 9 9 9 9 9 9 9 10 11 11 10 9 9 9 9 9 9 9 9 9
7 8 8 8 9 9 8 9 9 9 9 9 9 9 9 9 9 9 9 9 9 9 9 9 10 10 11 11 11 10 9 9 9 9 10 10 10 9
7 8 8 8 8 8 8 8 8 8 8 8 9 9 9 9 9 9 9 9 9 9 10 10 10 10 11 11 11 11 10 9 9 9 9 10 10 11
7 8 8 8 8 8 8 8 8 8 8 8 8 9 9 9 9 9 9 9 9 10 10 10 10 10 11 11 11 11 10 9 9 9 9 10 10 10
Wind_Speed
11 13 12 10 10 10 9 9 8 7 7 7 5 5 4 3 3 3 5 9 8 8 8 8 8 8 9 9 10 10 11 12 12 12 12 14 15 17
8 12 12 11 10 10 10 10 9 8 6 6 5 6 5 4 6 7 9 12 12 11 11 10 10 10 10 10 9 8 7 7 7 7 8 8 9 10
9 10 13 13 10 11 11 10 10 9 8 6 5 6 6 6 6 7 7 8 11 14 14 14 13 13 13 12 12 11 10 9 8 7 6 6 5 4
11 10 10 10 14 12 10 12 11 10 9 8 7 6 6 8 8 8 7 8 10 14 15 15 15 15 16 15 15 15 14 14 14 13 13 12 12 11
12 11 10 10 11 11 13 12 11 11 10 9 8 7 6 8 9 8 9 8 9 12 14 15 15 16 16 17 17 17 17 17 18 18 18 17 17 16
12 11 11 10 10 9 10 12 11 11 11 10 9 8 8 9 9 8 7 6 7 8 10 12 15 16 16 16 17 17 18 19 20 20 20 20 20 19
13 13 12 12 11 8 7 8 9 10 10 10 10 9 9 10 9 8 9 8 6 6 8 8 9 10 12 15 16 17 19 20 21 21 21 21 21 20
14 13 12 13 13 13 11 9 8 9 10 10 11 11 12 12 11 11 11 10 5 5 7 7 7 8 9 12 16 18 19 20 21 21 21 21 21 20
14 13 12 12 13 12 13 13 11 10 9 9 10 11 12 13 14 15 13 12 7 9 9 8 7 9 10 14 17 19 20 20 20 20 20 20 20 20
15 14 13 11 12 11 11 12 12 11 11 10 11 10 10 12 15 15 13 9 10 7 6 7 8 9 10 13 15 17 19 20 19 19 20 20 20 19
16 16 15 14 11 11 11 13 13 11 11 11 10 8 5 7 12 13 14 13 9 7 5 6 9 10 9 9 12 15 17 18 18 18 18 19 19 18
14 15 14 13 11 13 12 12 13 12 10 11 10 9 9 12 16 17 17 15 11 7 7 7 12 10 7 8 10 13 13 14 14 14 12 10 5 4
12 12 13 16 13 13 12 11 10 9 11 11 11 10 10 11 15 14 14 15 14 8 12 10 12 10 8 9 9 11 12 12 11 10 8 3 4 4
11 10 9 17 15 13 12 10 7 7 9 9 10 11 11 11 12 12 11 9 7 9 15 12 10 10 10 12 10 11 11 12 11 10 10 8 3 5
9 3 6 13 12 11 12 10 9 9 10 10 11 11 11 12 11 10 10 9 8 11 15 11 11 10 11 11 12 12 11 11 10 9 9 9 8 8
10 7 9 9 9 7 9 10 10 10 10 10 10 9 10 11 12 12 12 12 10 9 9 11 11 12 10 11 12 12 12 10 11 10 9 8 9 8
10 9 10 10 11 11 10 10 10 11 11 10 10 10 11 12 12 13 13 13 11 12 12 10 10 10 9 10 12 12 12 10 11 10 9 9 8 8
7 9 10 10 11 11 11 10 10 10 10 10 11 11 12 12 12 13 14 14 14 13 13 12 12 11 10 9 8 12 11 10 11 11 10 9 9 9
9 10 10 10 10 10 9 9 10 9 9 10 11 11 12 13 14 15 14 14 14 14 14 14 14 14 14 13 9 8 10 10 11 11 11 9 8 9
10 9 9 9 9 8 8 8 8 8 9 9 10 11 13 14 15 15 15 15 15 15 14 13 14 14 12 11 11 11 10 11 11 11 11 9 6 6
8 8 8 8 8 7 7 7 8 7 8 9 10 11 12 13 14 15 14 17 16 15 16 14 12 11 9 7 10 12 12 8 3 8 11 10 10 9
7 7 6 6 6 6 7 7 7 7 8 9 9 10 11 12 15 17 16 16 14 14 15 12 11 11 10 10 10 12 12 12 6 1 3 5 8 9
6 6 5 6 6 6 6 7 8 7 8 9 9 10 11 12 12 14 15 15 14 14 14 13 13 12 11 10 9 10 13 13 12 11 11 12 8 4
Wind_Direction
245 237 236 236 229 226 226 230 232 224 201 178 179 152 148 114 101 94 88 86 101 114 121 129 140 150 159 170 182 192 200 207 211 216 221 226 232 237
260 249 237 236 229 224 222 223 228 238 230 168 166 150 137 127 107 98 95 92 85 95 103 108 114 121 128 134 137 144 155 171 182 190 200 211 223 229
253 255 246 239 232 223 220 219 220 222 223 195 163 151 150 142 127 116 108 101 93 88 93 97 101 105 108 112 115 116 116 118 125 133 136 133 130 134
243 244 251 245 235 230 222 219 217 215 219 210 181 171 161 150 136 125 113 100 98 88 90 92 94 97 99 100 100 101 101 100 98 96 96 96 95 92
241 239 239 242 241 232 226 220 216 210 214 213 198 173 157 148 137 125 114 108 103 103 96 92 92 93 95 97 97 98 97 96 94 91 89 87 86 85
237 237 235 234 238 239 233 228 222 214 206 211 201 181 164 156 151 144 131 125 117 110 97 100 99 95 94 96 98 100 100 98 96 94 91 88 85 83
229 229 230 228 232 238 242 235 224 218 209 207 203 189 176 168 169 162 144 129 112 128 127 126 124 115 108 104 102 102 102 101 99 97 94 91 88 85
228 225 222 215 220 223 236 247 244 228 217 212 208 200 190 181 173 162 153 150 143 154 136 122 122 115 109 102 105 107 106 104 102 99 97 94 92 88
226 223 225 214 201 216 216 222 237 243 242 235 225 214 198 186 175 172 174 172 151 156 142 123 120 107 102 103 110 111 110 108 106 103 101 97 94 90
224 222 224 224 212 211 216 214 217 220 225 232 238 235 220 193 182 178 164 131 117 141 144 127 128 116 111 113 112 114 114 113 112 110 108 104 99 93
224 221 220 221 200 195 221 222 216 214 216 228 245 254 250 195 175 162 152 147 142 156 167 138 141 128 122 124 121 118 119 120 120 120 121 121 121 111
219 219 215 223 190 185 220 227 223 213 203 207 217 226 216 190 173 174 170 166 152 156 177 154 153 144 134 141 145 146 135 128 128 132 136 143 168 156
219 215 210 187 191 193 220 232 230 219 202 203 204 205 205 194 186 184 182 176 169 163 168 162 165 166 148 152 161 164 159 157 154 152 156 155 9 13
225 222 199 164 183 196 215 230 224 217 214 205 205 199 196 191 186 182 176 172 163 157 164 163 165 170 152 154 160 168 171 173 172 167 161 157 127 64
234 223 143 154 177 201 218 217 214 219 216 209 207 201 192 181 170 159 139 121 111 137 156 162 158 164 164 163 161 166 172 176 180 175 170 173 169 165
227 183 160 169 209 227 199 204 218 221 216 212 205 195 179 168 163 155 148 140 133 138 149 161 163 165 172 164 162 167 172 174 178 182 180 179 181 179
204 205 207 201 205 210 215 213 211 211 212 212 199 186 174 166 161 157 154 153 152 156 160 165 170 180 174 167 168 170 174 175 176 176 186 187 186 187
205 210 211 209 210 210 210 209 210 211 208 203 193 182 173 165 159 157 160 163 160 160 163 166 168 169 168 166 172 173 176 176 169 173 194 196 190 187
214 220 214 212 211 211 212 211 210 205 200 196 189 180 171 164 160 160 163 165 163 163 166 168 172 172 173 172 178 205 182 172 170 177 195 203 199 184
222 220 217 214 212 212 212 211 208 198 192 190 185 178 170 165 163 163 166 167 164 162 164 172 180 183 184 176 170 181 201 182 180 184 189 199 181 115
216 218 217 214 209 209 209 207 201 195 187 183 181 172 166 165 164 164 164 164 164 164 168 176 181 186 188 174 166 170 181 187 185 192 189 191 190 190
213 218 217 215 209 207 201 199 192 184 178 177 175 166 163 165 163 163 163 165 167 167 169 167 167 182 191 187 182 169 171 175 174 162 232 226 206 203
215 213 209 207 206 203 194 188 182 178 175 172 169 163 161 161 161 162 162 164 166 167 165 163 170 185 191 192 191 177 171 177 188 195 211 219 231 220
Height
1465 1468 1471 1474 1476 1479 1481 1483 1485 1485 1486 1488 1488 1488 1489 1490 1492 1493 1495 1497 1499 1501 1504 1507 1509 1511 1514 1517 1519 1522 1524 1526 1529 1531 1532 1534 1536 1538
1458 1461 1464 1467 1470 1473 1476 1478 1480 1482 1483 1484 1485 1486 1486 1488 1489 1490 1492 1494 1496 1499 1501 1503 1506 1508 1510 1513 1515 1517 1520 1522 1524 1525 1527 1528 1530 1532
1451 1453 1456 1460 1464 1467 1470 1472 1475 1477 1479 1481 1482 1483 1483 1485 1486 1488 1490 1492 1494 1496 1498 1501 1503 1505 1507 1509 1511 1514 1516 1518 1519 1521 1522 1524 1525 1527
1445 1446 1448 1452 1456 1460 1463 1466 1469 1472 1475 1477 1479 1480 1481 1482 1484 1486 1488 1490 1492 1494 1496 1499 1501 1503 1505 1507 1508 1511 1513 1514 1516 1517 1519 1520 1521 1523
1439 1441 1442 1444 1448 1452 1456 1459 1463 1466 1469 1473 1475 1476 1478 1480 1482 1484 1486 1488 1490 1492 1495 1497 1499 1501 1503 1505 1507 1508 1510 1512 1513 1515 1516 1518 1519 1520
1433 1434 1436 1438 1440 1443 1448 1452 1456 1460 1463 1467 1470 1473 1474 1477 1479 1481 1484 1487 1489 1491 1493 1496 1498 1500 1502 1503 1505 1507 1509 1511 1512 1514 1515 1516 1517 1518
1428 1429 1430 1432 1433 1436 1440 1444 1449 1453 1457 1461 1465 1468 1470 1472 1476 1479 1481 1484 1487 1490 1493 1496 1498 1499 1501 1503 1505 1507 1508 1510 1512 1513 1515 1516 1517 1518
1422 1424 1425 1426 1428 1430 1433 1437 1442 1446 1450 1455 1459 1462 1465 1468 1472 1475 1478 1481 1485 1489 1492 1495 1497 1499 1501 1502 1504 1506 1508 1510 1512 1513 1515 1516 1517 1518
1415 1418 1420 1422 1423 1425 1428 1431 1434 1439 1444 1449 1453 1457 1461 1464 1467 1471 1475 1479 1482 1485 1490 1493 1496 1498 1500 1502 1504 1507 1509 1510 1512 1513 1515 1516 1517 1518
1409 1411 1414 1417 1418 1420 1423 1425 1428 1432 1436 1442 1447 1452 1457 1460 1463 1467 1472 1475 1480 1484 1488 1491 1494 1497 1499 1502 1504 1507 1509 1510 1512 1513 1515 1516 1517 1518
1402 1405 1408 1411 1413 1415 1418 1420 1423 1425 1430 1435 1441 1446 1450 1455 1459 1463 1467 1471 1475 1481 1485 1488 1492 1496 1499 1501 1504 1507 1509 1510 1512 1513 1514 1516 1517 1518
1395 1398 1402 1405 1408 1410 1413 1415 1417 1420 1424 1429 1434 1439 1444 1449 1454 1458 1462 1466 1470 1476 1481 1485 1489 1494 1499 1502 1503 1506 1508 1510 1512 1513 1514 1516 1517 1519
1389 1392 1395 1398 1402 1405 1408 1410 1413 1416 1420 1424 1428 1433 1439 1444 1448 1453 1458 1462 1466 1470 1475 1480 1485 1491 1494 1499 1503 1506 1508 1510 1512 1513 1515 1516 1518 1520
1384 1387 1390 1393 1396 1400 1403 1405 1408 1411 1415 1419 1423 1427 1432 1437 1443 1448 1453 1458 1463 1467 1471 1476 1481 1487 1491 1495 1500 1504 1507 1510 1512 1514 1516 1517 1518 1519
1380 1383 1386 1388 1392 1395 1398 1400 1403 1406 1409 1413 1416 1421 1426 1432 1437 1443 1448 1453 1458 1463 1469 1474 1479 1484 1490 1493 1497 1501 1505 1509 1512 1514 1516 1518 1519 1521
1375 1378 1381 1384 1388 1391 1393 1395 1398 1401 1404 1407 1411 1416 1421 1426 1431 1437 1443 1448 1454 1460 1466 1472 1478 1484 1489 1493 1496 1499 1503 1507 1510 1513 1516 1518 1520 1522
1372 1375 1378 1381 1383 1386 1389 1391 1393 1396 1399 1402 1406 1411 1415 1420 1426 1432 1438 1444 1450 1456 1463 1470 1477 1483 1488 1492 1495 1498 1502 1505 1508 1511 1514 1517 1519 1521
1369 1371 1374 1376 1379 1381 1384 1386 1388 1391 1394 1397 1401 1405 1410 1415 1421 1428 1434 1440 1447 1454 1460 1467 1474 1481 1487 1491 1494 1497 1500 1503 1506 1508 1512 1516 1518 1519
1366 1368 1370 1372 1375 1377 1379 1381 1383 1386 1389 1392 1396 1401 1406 1411 1417 1423 1430 1437 1445 1451 1458 1465 1471 1477 1482 1486 1491 1495 1498 1501 1504 1506 1510 1513 1516 1518
1362 1364 1366 1368 1370 1373 1375 1377 1379 1381 1384 1387 1391 1396 1401 1407 1413 1420 1427 1434 1442 1449 1456 1463 1469 1474 1479 1483 1487 1491 1495 1498 1501 1504 1508 1511 1514 1515
1359 1361 1363 1365 1367 1369 1371 1373 1375 1377 1380 1383 1388 1392 1397 1404 1410 1417 1425 1432 1439 1446 1453 1459 1466 1472 1478 1482 1485 1489 1492 1495 1499 1502 1505 1508 1511 1513
1357 1359 1361 1362 1364 1366 1367 1369 1372 1374 1377 1381 1385 1390 1396 1402 1408 1415 1422 1429 1437 1444 1451 1458 1464 1470 1475 1479 1482 1486 1489 1492 1495 1498 1501 1505 1508 1511
1355 1357 1358 1360 1361 1363 1365 1367 1369 1372 1375 1379 1383 1388 1394 1401 1407 1414 1421 1428 1435 1443 1450 1456 1462 1468 1473 1477 1480 1483 1486 1489 1492 1495 1498 1500 1503 1506